Location: Gettysburg
(39.8310°N, 77.2310°W)
Time: 05:37:52
(UTC-05:00)

ATLAS 2AS CENTAUR R/B - Visible Passes

Search period start: 18 December 2014 00:00
Search period end: 28 December 2014 00:00
Orbit: 915 x 1297 km, 63.7° (Epoch: 16 December)

Date Brightness Start Highest point End Pass type
(mag) Time Alt. Az. Time Alt. Az. Time Alt. Az.
18 Dec 3.2 17:18:13 10° NNW 17:26:12 57° NE 17:33:54 10° SE visible
18 Dec 4.5 19:09:50 10° NW 19:16:54 35° WSW 19:23:41 10° S visible
19 Dec 3.8 18:24:37 10° NW 18:32:26 54° WSW 18:39:53 10° S visible
20 Dec 3.2 17:39:40 10° NW 17:47:48 81° WSW 17:55:34 10° SSE visible
20 Dec 5.6 19:33:15 10° WNW 19:37:35 16° WSW 19:41:50 10° SW visible
21 Dec 5.1 18:47:00 10° NW 18:53:21 26° WSW 18:59:29 10° SSW visible
22 Dec 5.7 06:47:56 10° SSE 06:53:02 22° ESE 06:58:25 10° ENE visible
22 Dec 4.4 18:01:33 10° NW 18:08:58 42° WSW 18:16:05 10° S visible
23 Dec 6.1 06:06:25 10° ESE 06:08:53 12° E 06:11:24 10° E visible
23 Dec 3.7 17:16:28 10° NW 17:24:26 64° WSW 17:32:04 10° SSE visible
23 Dec 6.1 19:12:17 10° W 19:13:54 11° W 19:15:31 10° WSW visible
24 Dec 5.7 18:24:26 10° WNW 18:29:45 20° WSW 18:34:55 10° SSW visible
25 Dec 5.1 06:23:33 10° SSE 06:29:26 29° ESE 06:35:44 10° NE visible
25 Dec 5.1 17:38:36 10° NW 17:45:28 32° WSW 17:52:03 10° SSW visible
26 Dec 5.7 05:40:51 10° SE 05:45:12 17° ESE 05:49:45 10° ENE visible
27 Dec 3.6 06:43:27 10° SSW 06:50:22 61° ESE 06:57:58 10° NE visible
27 Dec 6.1 18:02:24 10° WNW 18:06:06 14° WSW 18:09:45 10° SW visible
